ROMMA est une association bénévole à but non lucratif. Votre soutien est indispensable : ADHERER à ROMMA ou FAIRE un DON

Die - (26, Drôme)

Diois (400 m)   Longitude: 5° 21' 55"E   Latitude: 44° 45' 16"N Station partenaire n°159
 

Détail journalier du     <<     >>

Température Precipitation Humidité Pression Vent Dir Rafale Dir. rafale Ensol.
Heure (°C) (mm) (%) (hPa) (km/h) (km/h) (min)
01:00 13.6095101503NO0
02:00 13.6096101403NO0
03:00 13.609610141NO5NO0
04:00 13.309410143ONO10O0
05:00 13.2095101303OSO0
06:00 13.209310121E5OSO0
07:00 12.509410112NO8NNO0
08:00 11.609610102NNO8NNO0
09:00 11.809610112NO8ONO0
10:00 13.109310112SSO6SO0
11:00 16.808610104ONO11NO60
12:00 24.804010096ESE26SE0
13:00 24.904110084E21SE0
14:00 24.704010075SE23SSE0
15:00 24.104410086SE26SE0
16:00 22.805010084E24OSO0
17:00 15.4081101114ONO44ONO0
18:00 14.22.29110115E23ONO0
19:00 14.149210123ONO10NO0
20:00 13.82.89410132NE6NO0
21:00 13.639510112ONO6NO0
22:00 13.65.896101303NO0
23:00 13.3696101303NO0
minuit 13.18.496101305NO0

Graphique du 23-10-2019

 

Serveur OMMA